Weather History for Akron, OH

Change the Weather History Date:

Friday, February 8, 2013

  Actual Average (KCAK) Record (KCAK)
Temperature  
Mean Temperature 32 °F 28 °F  
Max Temperature 39 °F 35 °F 67 °F (1900)
Min Temperature 24 °F 20 °F -10 °F (1934)
Degree Days  
Heating Degree Days 34 37  
Month to date heating degree days 303  
Since 1 July heating degree days 3839  
Cooling Degree Days 0 0  
Month to date cooling degree days 0  
Year to date cooling degree days 0  
Moisture  
Dew Point 26 °F    
Average Humidity 84    
Maximum Humidity 93    
Minimum Humidity 73    
Precipitation  
Precipitation 0.20 in 0.09 in 0.68 in (1971)
Month to date precipitation 0.66  
Year to date precipitation 3.27  
Snow  
Snow 0.00 in 0.40 in - ()
Month to date snowfall 3.0  
Since 1 July snowfall 29.0  
Snow Depth -    
Sea Level Pressure  
Sea Level Pressure 29.94 in    
Wind  
Wind Speed 13 mph (WNW)    
Max Wind Speed 20 mph    
Max Gust Speed 30 mph    
Visibility 5 miles    
Events Rain , Snow    
T = Trace of Precipitation, MM = Missing Value Source: NWS Daily Summary

Daily Weather History Graph

Daily Weather History Graph

Search for Another Location

Airport:

Trip Planner

Search our weather history database for the weather conditions in past years. The results will help you decide how hot, cold, wet, or windy it might be!

Date:

Astronomy

Feb. 08, 2013 Rise Set
Actual Time 7:28 AM EST 5:51 PM EST
Civil Twilight 7:00 AM EST 6:20 PM EST
Nautical Twilight 6:27 AM EST 6:53 PM EST
Astronomical Twilight 5:55 AM EST 7:25 PM EST
Moon 5:56 AM EST (2/8) 4:23 PM EST (2/8)
Length of Visible Light 11h 20m
Length of Day
10h 23m
Waning Crescent, 3% of the Moon is Illuminated
Feb 8
Waning Crescent
Feb 10
New
Feb 17
First Quarter
Feb 25
Full
Mar 4
Last Quarter

Hourly Weather History & Observations

Time (EST) Temp. Windchill Dew Point Humidity Pressure Visibility Wind Dir Wind Speed Gust Speed Precip Events Conditions
12:54 AM 37.0 °F 30.4 °F 28.9 °F 73% 29.86 in 10.0 mi SSE 9.2 mph - N/A   Partly Cloudy
1:54 AM 37.9 °F 31.5 °F 30.0 °F 73% 29.83 in 10.0 mi SSE 9.2 mph - N/A   Mostly Cloudy
2:54 AM 39.0 °F 32.8 °F 30.9 °F 73% 29.81 in 10.0 mi South 9.2 mph 16.1 mph N/A   Overcast
3:54 AM 39.0 °F 32.8 °F 32.0 °F 76% 29.78 in 10.0 mi SSE 9.2 mph - N/A   Overcast
4:54 AM 37.9 °F 30.9 °F 32.0 °F 79% 29.76 in 10.0 mi South 10.4 mph - N/A   Overcast
5:54 AM 37.9 °F 32.1 °F 33.1 °F 83% 29.75 in 10.0 mi South 8.1 mph - 0.00 in   Overcast
6:17 AM 39.2 °F 32.0 °F 33.8 °F 81% 29.73 in 10.0 mi South 11.5 mph - 0.00 in Rain Light Rain
6:54 AM 37.9 °F 32.7 °F 34.0 °F 86% 29.75 in 5.0 mi South 6.9 mph - 0.06 in Rain Light Rain
7:39 AM 37.4 °F 29.3 °F 35.6 °F 93% 29.75 in 5.0 mi SW 12.7 mph - 0.08 in Rain Light Rain
7:54 AM 39.0 °F 31.4 °F 36.0 °F 89% 29.77 in 5.0 mi SW 12.7 mph - 0.10 in Rain Light Rain
8:54 AM 36.0 °F 26.7 °F 33.1 °F 89% 29.80 in 10.0 mi WSW 15.0 mph - 0.03 in   Overcast
9:01 AM 35.6 °F 25.5 °F 33.8 °F 93% 29.78 in 8.0 mi West 17.3 mph - 0.00 in   Overcast
9:22 AM 35.6 °F 28.0 °F 33.8 °F 93% 29.79 in 1.8 mi West 10.4 mph - 0.00 in Rain Light Rain
9:40 AM 33.8 °F 23.2 °F 32.0 °F 93% 29.79 in 2.5 mi West 17.3 mph 25.3 mph 0.01 in   Overcast
9:54 AM 34.0 °F 23.8 °F 30.9 °F 89% 29.82 in 3.0 mi WNW 16.1 mph - 0.01 in   Overcast
10:26 AM 33.8 °F 25.3 °F 30.2 °F 87% 29.82 in 2.5 mi West 11.5 mph 21.9 mph 0.00 in   Overcast
10:44 AM 32.0 °F 22.5 °F 30.2 °F 93% 29.83 in 4.0 mi West 12.7 mph 23.0 mph 0.00 in   Overcast
10:54 AM 32.0 °F 21.2 °F 30.0 °F 92% 29.86 in 3.0 mi WNW 16.1 mph 23.0 mph 0.00 in   Overcast
11:23 AM 30.2 °F 18.9 °F 28.4 °F 93% 29.85 in 9.0 mi WNW 16.1 mph 21.9 mph 0.00 in   Overcast
11:54 AM 30.9 °F 20.7 °F 28.0 °F 89% 29.89 in 6.0 mi WNW 13.8 mph 21.9 mph 0.00 in   Overcast
12:54 PM 28.9 °F 16.5 °F 26.1 °F 89% 29.91 in 5.0 mi WNW 18.4 mph 25.3 mph 0.00 in   Overcast
1:43 PM 28.4 °F 15.8 °F 24.8 °F 86% 29.92 in 2.5 mi NW 18.4 mph 27.6 mph 0.00 in Snow Light Snow
1:50 PM 28.4 °F 17.0 °F 24.8 °F 86% 29.92 in 2.5 mi NW 15.0 mph 23.0 mph 0.00 in Snow Light Snow
1:54 PM 28.0 °F 15.7 °F 24.1 °F 85% 29.96 in 2.5 mi NW 17.3 mph 24.2 mph 0.00 in Snow Light Snow
2:20 PM 28.4 °F 16.6 °F 23.0 °F 80% 29.94 in 1.8 mi NW 16.1 mph 24.2 mph 0.00 in Snow Light Snow
2:40 PM 28.4 °F 15.8 °F 23.0 °F 80% 29.95 in 1.2 mi NW 18.4 mph 25.3 mph 0.00 in Snow Light Snow
2:54 PM 28.0 °F 15.7 °F 24.1 °F 85% 29.99 in 1.0 mi NNW 17.3 mph 28.8 mph 0.00 in Snow Light Snow
3:09 PM 26.6 °F 14.7 °F 23.0 °F 86% 29.97 in 0.8 mi NNW 15.0 mph 23.0 mph 0.00 in Snow Light Snow
3:29 PM 26.6 °F 14.7 °F 23.0 °F 86% 29.98 in 1.5 mi NNW 15.0 mph 27.6 mph 0.00 in Snow Light Snow
3:54 PM 27.0 °F 15.6 °F 24.1 °F 89% 30.02 in 1.2 mi NNW 13.8 mph 21.9 mph 0.00 in Snow Light Snow
4:34 PM 26.6 °F 13.8 °F 21.2 °F 80% 30.02 in 2.0 mi NNW 17.3 mph 29.9 mph 0.00 in Snow Light Snow
4:43 PM 26.6 °F 13.1 °F 21.2 °F 80% 30.03 in 3.0 mi NW 19.6 mph 27.6 mph 0.00 in   Haze
4:54 PM 26.1 °F 12.7 °F 21.0 °F 81% 30.06 in 2.5 mi NW 18.4 mph 29.9 mph 0.00 in Snow Light Snow
5:17 PM 26.6 °F 14.7 °F 21.2 °F 80% 30.04 in 1.8 mi NW 15.0 mph - 0.00 in Snow Light Snow
5:24 PM 26.6 °F 13.8 °F 21.2 °F 80% 30.05 in 2.0 mi NNW 17.3 mph 28.8 mph 0.00 in Snow Light Snow
5:38 PM 26.6 °F 13.4 °F 21.2 °F 80% 30.05 in 4.0 mi NW 18.4 mph 21.9 mph 0.00 in   Haze
5:54 PM 26.1 °F 13.6 °F 19.9 °F 78% 30.09 in 5.0 mi NNW 16.1 mph 25.3 mph 0.00 in   Haze
6:20 PM 24.8 °F 11.5 °F 19.4 °F 80% 30.08 in 3.0 mi NW 17.3 mph 25.3 mph 0.00 in Snow Light Snow
6:54 PM 25.0 °F 13.1 °F 19.9 °F 81% 30.13 in 7.0 mi NNW 13.8 mph 28.8 mph 0.00 in   Overcast
7:54 PM 25.0 °F 11.7 °F 19.9 °F 81% 30.16 in 10.0 mi NW 17.3 mph 29.9 mph N/A   Overcast
8:54 PM 25.0 °F 11.7 °F 19.9 °F 81% 30.19 in 7.0 mi NW 17.3 mph 26.5 mph N/A   Overcast
9:54 PM 25.0 °F 12.6 °F 19.9 °F 81% 30.21 in 10.0 mi NNW 15.0 mph 26.5 mph N/A   Overcast
10:33 PM 24.8 °F 11.9 °F 19.4 °F 80% 30.18 in 10.0 mi NNW 16.1 mph 21.9 mph N/A   Overcast
10:54 PM 25.0 °F 11.7 °F 19.9 °F 81% 30.22 in 10.0 mi NW 17.3 mph - N/A   Overcast
11:54 PM 26.1 °F 14.5 °F 19.9 °F 78% 30.24 in 10.0 mi NW 13.8 mph 26.5 mph N/A   Overcast